[[{"header":{"parameterUnit":"m.s-1","parameterCategory":1,"la1":30.2991,"la2":30.254,"lo1":-89.0895,"lo2":-89.0444,"dy":0.0017,"dx":0.0017,"nx":28,"ny":28,"refTime":"2024-07-21T21:00:00:Z","depth":0,"parameterNumber":2,"parameterNumberName":"U-component_of_WINDS"},"data":[0,0,0,0,0,0,0,0,0,0,0,0,0,0,0,0,0,0,0,0,0,0,0,0,0,0,0,0,0,0,0,0,0,0,0,0,0,0,0,0,0,0,0,0,0,0,0,0,0,0,0,0,0,0,0,0,0,0,-0.5579,-0.5579,0,-0.5577,-0.5577,-0.5577,-0.5549,-0.5548,-0.5547,-0.5547,-0.5546,-0.5546,-0.5547,0,0,0,0,0,0,0,0,0,0,0,0,0,-0.5559,-0.556,-0.5579,-0.5579,-0.5579,-0.5577,-0.5577,-0.5577,-0.5549,-0.5548,-0.5547,-0.5546,-0.5546,-0.5546,-0.5547,0,0,0,0,0,0,0,0,0,0,0,0,0,-0.5564,-0.556,-0.5579,-0.5565,-0.5563,-0.5577,-0.5577,-0.5577,-0.5549,-0.5548,-0.5547,-0.5546,-0.5545,-0.5546,-0.5547,-0.5575,0,0,-0.555,-0.5551,0,0,0,0,0,0,0,0,-0.5564,-0.5565,-0.5567,-0.5566,-0.5564,-0.5562,-0.557,-0.5576,-0.5549,-0.5555,-0.5547,-0.5545,-0.5552,-0.5552,-0.5555,-0.5575,-0.5575,-0.555,-0.5551,-0.5551,-0.5552,0,0,0,0,0,0,0,-0.5563,-0.5564,-0.5578,-0.5567,-0.5565,-0.5559,-0.5558,-0.5571,-0.5559,-0.5554,-0.5552,-0.5552,-0.5551,-0.5554,-0.5554,-0.5575,-0.555,-0.5551,-0.5552,-0.5552,-0.562,-0.5621,0,0,0,0,0,0,-0.5565,-0.5564,-0.5578,-0.5578,-0.5561,-0.556,-0.5559,-0.5564,-0.5559,-0.5557,-0.5553,-0.5551,-0.5553,-0.5553,-0.5554,-0.5587,-0.5551,-0.5552,-0.5553,-0.5618,-0.562,-0.5621,0,0,0,0,0,0,-0.5564,-0.5566,-0.5578,-0.5571,-0.5572,-0.5561,-0.5567,-0.5564,-0.5567,-0.5559,-0.5556,-0.5558,-0.5552,-0.5553,-0.557,-0.5587,-0.5553,-0.5554,-0.5617,-0.5619,-0.5621,-0.5653,0,0,0,0,0,0,-0.5564,-0.5566,-0.5576,-0.5571,-0.5572,-0.5594,-0.5568,-0.5565,-0.5568,-0.5566,-0.5562,-0.5561,-0.5551,-0.5569,-0.5571,-0.5588,-0.5554,-0.5615,-0.5618,-0.562,-0.5651,-0.5656,-0.566,0,0,0,0,0,-0.5563,-0.5585,-0.5577,-0.5579,-0.5584,-0.5595,-0.5596,-0.5584,-0.557,-0.558,-0.5575,-0.5561,-0.5585,-0.5571,-0.5573,-0.559,-0.5614,-0.5617,-0.562,-0.5648,-0.5655,-0.566,0,0,0,0,0,0,-0.5592,-0.5584,-0.5575,-0.5596,-0.5596,-0.559,-0.5603,-0.5591,-0.5596,-0.5593,-0.5578,-0.5578,-0.5598,-0.5596,-0.5581,-0.5618,-0.5597,-0.56,-0.5618,-0.5624,-0.5629,-0.5629,-0.5555,0,0,0,0,0,-0.5601,-0.561,-0.5603,-0.5622,-0.5623,-0.5613,-0.5617,-0.5608,-0.5608,-0.5608,-0.5604,-0.5605,-0.5613,-0.5619,-0.5625,-0.565,-0.565,-0.5663,-0.5668,-0.5672,-0.5675,-0.569,-0.5696,-0.563,-0.563,-0.563,0,0,-0.562,-0.5616,-0.5623,-0.5628,-0.5627,-0.5637,-0.5613,-0.5624,-0.5632,-0.561,-0.5626,-0.5624,-0.5624,-0.5646,-0.5655,-0.5645,-0.5694,-0.5676,-0.5679,-0.568,-0.5693,-0.5699,-0.5705,-0.5632,-0.5632,-0.5631,0,0,-0.5658,-0.5656,-0.5673,-0.5673,-0.5672,-0.5666,-0.567,-0.5666,-0.5663,-0.568,-0.5664,-0.5673,-0.5686,-0.5687,-0.569,-0.5731,-0.5718,-0.5734,-0.5759,-0.5774,-0.5779,-0.5783,-0.5799,-0.5804,-0.5737,-0.5737,-0.5737,0,-0.5681,-0.5695,-0.5682,-0.5695,-0.5699,-0.5679,-0.5696,-0.5697,-0.5699,-0.5702,-0.569,-0.5708,-0.5706,-0.5729,-0.5739,-0.5741,-0.5746,-0.5734,-0.5779,-0.5783,-0.5787,-0.5802,-0.5808,-0.5739,-0.5738,-0.5738,-0.5738,0,-0.5724,-0.5734,-0.5748,-0.575,-0.5755,-0.577,-0.576,-0.5766,-0.5757,-0.5753,-0.577,-0.5768,-0.5775,-0.578,-0.5771,-0.5801,-0.5795,-0.5781,-0.576,-0.5796,-0.5809,-0.5815,-0.5741,-0.5741,-0.574,-0.574,0,0,-0.578,-0.5776,-0.5781,-0.5783,-0.5782,-0.579,-0.5804,-0.5811,-0.5817,-0.5819,-0.5832,-0.5845,-0.5832,-0.5835,-0.5827,-0.5839,-0.5873,-0.5824,-0.5824,-0.5834,-0.5908,-0.5919,-0.5925,-0.5865,-0.5866,-0.5867,-0.5908,0,-0.5818,-0.5842,-0.5832,-0.5857,-0.5867,-0.585,-0.5863,-0.5864,-0.586,-0.5869,-0.5865,-0.5874,-0.5857,-0.5859,-0.587,-0.5867,-0.5888,-0.5863,-0.5877,-0.5878,-0.5878,-0.5932,-0.5943,-0.5982,-0.5913,-0.5914,-0.5915,0,-0.5865,-0.587,-0.5896,-0.5895,-0.5898,-0.591,-0.5916,-0.5924,-0.5926,-0.5922,-0.5926,-0.5915,-0.593,-0.591,-0.5931,-0.5915,-0.592,-0.5919,-0.5921,-0.5922,-0.5899,-0.5935,-0.5994,-0.6,-0.5923,-0.5922,-0.5922,0,-0.5904,-0.5917,-0.5935,-0.5937,-0.5935,-0.5944,-0.5944,-0.5944,-0.5949,-0.5954,-0.5958,-0.5965,-0.5969,-0.5975,-0.5967,-0.5953,-0.599,-0.5968,-0.5988,-0.5989,-0.5997,-0.5997,-0.6058,-0.6,-0.6,-0.6,-0.5999,0,-0.5948,-0.5965,-0.5953,-0.5964,-0.5983,-0.5972,-0.5991,-0.5989,-0.599,-0.6001,-0.5986,-0.5997,-0.5985,-0.5996,-0.5989,-0.6009,-0.601,-0.6009,-0.6007,-0.601,-0.6011,-0.6013,-0.6011,-0.6001,-0.6001,-0.6,-0.6,0,-0.5995,-0.5987,-0.6006,-0.6003,-0.6003,-0.6017,-0.6015,-0.6026,-0.6021,-0.6035,-0.6038,-0.6031,-0.6043,-0.6035,-0.6046,-0.6042,-0.6068,-0.6062,-0.6067,-0.6066,-0.6086,-0.6085,-0.6152,-0.6161,-0.6097,-0.6097,-0.6098,0,-0.6023,-0.6036,-0.6035,-0.6041,-0.6042,-0.6052,-0.6057,-0.6047,-0.6053,-0.6057,-0.6067,-0.6077,-0.6085,-0.6104,-0.61,-0.6109,-0.6104,-0.6127,-0.6105,-0.6108,-0.6105,-0.6105,-0.6106,-0.6131,-0.6132,-0.6133,-0.6133,0,-0.6075,-0.6071,-0.6079,-0.6086,-0.6093,-0.6098,-0.6102,-0.6108,-0.6098,-0.6106,-0.6117,-0.6123,-0.6135,-0.6145,-0.6153,-0.6153,-0.6142,-0.614,-0.6145,-0.6149,-0.6152,-0.6152,-0.608,-0.6139,-0.6138,-0.6138,-0.6137,-0.6137,-0.6114,-0.6125,-0.6126,-0.6136,-0.6138,-0.6143,-0.6153,-0.615,-0.6159,-0.6168,-0.6161,-0.6175,-0.6178,-0.6187,-0.6189,-0.62,-0.6191,-0.6198,-0.62,-0.6202,-0.6206,-0.615,-0.6202,-0.6201,-0.6201,-0.6201,-0.6201,0,-0.6166,-0.6166,-0.6175,-0.6181,-0.6189,-0.6178,-0.6182,-0.619,-0.6202,-0.6205,-0.6213,-0.6227,-0.6237,-0.6235,-0.6245,-0.6255,-0.625,-0.6258,-0.6257,-0.6258,-0.6213,-0.6208,-0.6261,-0.6261,-0.6261,-0.6261,-0.6261,-0.6261,-0.6194,-0.6212,-0.6209,-0.6229,-0.6229,-0.6242,-0.6246,-0.625,-0.6253,-0.6269,-0.6277,-0.6276,-0.6277,-0.6287,-0.6297,-0.6296,-0.6301,-0.6311,-0.6308,-0.6266,-0.626,-0.6255,-0.625,-0.6311,-0.6311,-0.6352,-0.6352,-0.6352]},{"header":{"parameterUnit":"m.s-1","parameterCategory":1,"la1":30.2991,"la2":30.254,"lo1":-89.0895,"lo2":-89.0444,"dy":0.0017,"dx":0.0017,"nx":28,"ny":28,"refTime":"2024-07-21T21:00:00:Z","depth":0,"parameterNumber":3,"parameterNumberName":"V-component_of_WINDS"},"data":[0,0,0,0,0,0,0,0,0,0,0,0,0,0,0,0,0,0,0,0,0,0,0,0,0,0,0,0,0,0,0,0,0,0,0,0,0,0,0,0,0,0,0,0,0,0,0,0,0,0,0,0,0,0,0,0,0,0,4.5876,4.5876,0,4.5877,4.5877,4.5877,4.5887,4.5888,4.5888,4.5888,4.5885,4.5885,4.5885,0,0,0,0,0,0,0,0,0,0,0,0,0,4.588,4.588,4.5876,4.5876,4.5876,4.5877,4.5877,4.5877,4.5887,4.5888,4.5888,4.5888,4.5885,4.5885,4.5885,0,0,0,0,0,0,0,0,0,0,0,0,0,4.5879,4.588,4.5876,4.5881,4.5882,4.5877,4.5877,4.5877,4.5887,4.5888,4.5888,4.5889,4.5886,4.5885,4.5885,4.5873,0,0,4.5883,4.5883,0,0,0,0,0,0,0,0,4.5879,4.5879,4.588,4.5881,4.5882,4.5883,4.5877,4.5875,4.5887,4.5885,4.5888,4.5889,4.5884,4.5883,4.5883,4.5873,4.5873,4.5883,4.5883,4.5882,4.5882,0,0,0,0,0,0,0,4.5879,4.5879,4.5876,4.588,4.5881,4.5883,4.5883,4.5877,4.5882,4.5885,4.5886,4.5886,4.5884,4.5883,4.5883,4.5873,4.5883,4.5883,4.5882,4.5882,4.5855,4.5854,0,0,0,0,0,0,4.5879,4.5879,4.5876,4.5876,4.5882,4.5882,4.5883,4.5882,4.5882,4.5883,4.5886,4.5887,4.5884,4.5883,4.5883,4.587,4.5882,4.5882,4.5882,4.5855,4.5855,4.5854,0,0,0,0,0,0,4.5879,4.5879,4.5876,4.5878,4.5878,4.5882,4.5881,4.5881,4.5881,4.5883,4.5883,4.5884,4.5884,4.5883,4.5876,4.587,4.5882,4.5881,4.5856,4.5855,4.5854,4.5844,0,0,0,0,0,0,4.5879,4.5879,4.5875,4.5878,4.5878,4.587,4.588,4.5881,4.588,4.5881,4.5881,4.5881,4.5884,4.5877,4.5875,4.5869,4.5881,4.5856,4.5855,4.5855,4.5845,4.5843,4.5841,0,0,0,0,0,4.5879,4.5871,4.5875,4.5874,4.5873,4.587,4.5869,4.5874,4.588,4.5875,4.5877,4.5881,4.5871,4.5876,4.5874,4.5868,4.5857,4.5856,4.5855,4.5845,4.5843,4.5841,0,0,0,0,0,0,4.5865,4.5871,4.5876,4.5868,4.5868,4.5872,4.5866,4.5871,4.5869,4.587,4.5875,4.5875,4.5867,4.5867,4.5872,4.5858,4.5865,4.5863,4.5858,4.5856,4.5854,4.5854,4.588,0,0,0,0,0,4.5862,4.586,4.5864,4.5857,4.5857,4.5862,4.586,4.5864,4.5864,4.5864,4.5865,4.5864,4.5861,4.5858,4.5855,4.5845,4.5845,4.584,4.5838,4.5837,4.5836,4.5831,4.5829,4.5851,4.5851,4.5851,0,0,4.5853,4.5856,4.5854,4.5854,4.5855,4.5852,4.5862,4.5858,4.5855,4.5863,4.5857,4.5858,4.5857,4.5848,4.5845,4.5848,4.583,4.5836,4.5835,4.5834,4.583,4.5827,4.5826,4.5851,4.5851,4.5851,0,0,4.5836,4.5839,4.5833,4.5835,4.5837,4.584,4.5839,4.5842,4.5843,4.5837,4.5843,4.584,4.5834,4.5833,4.5832,4.5817,4.5821,4.5816,4.5807,4.5802,4.5801,4.5799,4.5794,4.5792,4.5815,4.5815,4.5815,0,4.5825,4.5822,4.5829,4.5826,4.5826,4.5835,4.5829,4.5829,4.5829,4.5829,4.5833,4.5827,4.5827,4.5818,4.5815,4.5814,4.5812,4.5816,4.5801,4.5799,4.5798,4.5793,4.5791,4.5814,4.5814,4.5814,4.5815,0,4.5809,4.5806,4.5802,4.5804,4.5803,4.5798,4.5804,4.5802,4.5807,4.5809,4.5804,4.5804,4.5802,4.58,4.5804,4.5793,4.5795,4.58,4.5807,4.5795,4.579,4.5788,4.5813,4.5814,4.5814,4.5814,0,0,4.5782,4.5789,4.5787,4.5789,4.5793,4.579,4.5786,4.5786,4.5784,4.5784,4.5781,4.5776,4.5781,4.578,4.5784,4.5779,4.5768,4.5785,4.5785,4.5782,4.5757,4.5753,4.5751,4.5771,4.5771,4.5771,4.5757,0,4.5766,4.576,4.5767,4.576,4.5758,4.5767,4.5763,4.5765,4.5768,4.5766,4.5768,4.5766,4.5772,4.5772,4.5768,4.577,4.5763,4.5771,4.5767,4.5767,4.5767,4.5749,4.5744,4.5731,4.5755,4.5755,4.5755,0,4.5746,4.5748,4.574,4.5746,4.5745,4.5742,4.5743,4.5741,4.5743,4.5745,4.5745,4.575,4.5746,4.5753,4.5747,4.5753,4.5752,4.5753,4.5752,4.5752,4.576,4.5747,4.5727,4.5725,4.5752,4.5752,4.5752,0,4.5728,4.5727,4.5723,4.5724,4.5731,4.5728,4.573,4.5733,4.5733,4.5733,4.5733,4.5732,4.5731,4.573,4.5735,4.574,4.5728,4.5736,4.5729,4.5729,4.5726,4.5726,4.5705,4.5725,4.5726,4.5726,4.5726,0,4.5709,4.5704,4.5715,4.5713,4.5708,4.5716,4.571,4.5713,4.5716,4.5714,4.5721,4.5719,4.5725,4.5723,4.5727,4.5721,4.5721,4.5722,4.5723,4.5721,4.5721,4.572,4.5721,4.5725,4.5725,4.5725,4.5725,0,4.5687,4.5694,4.5691,4.5698,4.5699,4.5695,4.5701,4.5698,4.5703,4.57,4.5699,4.5705,4.5704,4.5709,4.5707,4.5709,4.5702,4.5704,4.5702,4.5702,4.5696,4.5696,4.5673,4.5671,4.5693,4.5692,4.5692,0,4.5674,4.5671,4.5679,4.5678,4.5681,4.568,4.5681,4.5689,4.5688,4.5691,4.5689,4.5688,4.5688,4.5684,4.5688,4.5687,4.5689,4.5681,4.5689,4.5688,4.5689,4.5689,4.5689,4.5679,4.5679,4.5679,4.5679,0,4.5651,4.5656,4.5657,4.5659,4.566,4.5662,4.5664,4.5663,4.5672,4.5671,4.567,4.567,4.567,4.5669,4.5669,4.5671,4.5676,4.5677,4.5675,4.5673,4.5672,4.5673,4.5697,4.5677,4.5677,4.5677,4.5677,4.5677,4.5634,4.5632,4.5637,4.5638,4.5641,4.5644,4.5642,4.5647,4.5647,4.5649,4.5653,4.5652,4.5654,4.5656,4.5657,4.5655,4.5659,4.5656,4.5656,4.5655,4.5654,4.5673,4.5655,4.5655,4.5655,4.5655,4.5655,0,4.5611,4.5616,4.5617,4.5621,4.5622,4.5629,4.5632,4.5632,4.5631,4.5634,4.5634,4.5634,4.5633,4.5638,4.5638,4.5636,4.5638,4.5636,4.5635,4.5636,4.5651,4.5652,4.5634,4.5634,4.5634,4.5634,4.5634,4.5634,4.56,4.5597,4.5602,4.5602,4.5606,4.5606,4.5607,4.5609,4.5612,4.5612,4.5612,4.5616,4.5619,4.562,4.562,4.5621,4.562,4.5617,4.5619,4.5633,4.5635,4.5637,4.5638,4.5617,4.5617,4.5604,4.5604,4.5604]}]]